Weather History for Billings, MT

Change the Weather History Date:

Thursday, March 7, 2013

  Actual Average Record
Temperature  
Mean Temperature 40 °F 35 °F  
Max Temperature 53 °F 46 °F 65 °F (1993)
Min Temperature 26 °F 25 °F -19 °F (1951)
Degree Days  
Heating Degree Days 25 30  
Month to date heating degree days 213 214  
Since 1 July heating degree days 4774 5179  
Cooling Degree Days 0 0  
Month to date cooling degree days 0 0  
Year to date cooling degree days 0 0  
Moisture  
Dew Point 23 °F    
Average Humidity 52    
Maximum Humidity 85    
Minimum Humidity 19    
Precipitation  
Precipitation 0.00 in 0.03 in 0.10 in (1960)
Month to date precipitation 0.17 0.18  
Year to date precipitation 1.05 1.14  
Snow  
Snow 0.00 in 0.30 in 3.00 in (2003)
Month to date snowfall 1.7 2.1  
Since 1 July snowfall 33.8 36.6  
Snow Depth T in    
Sea Level Pressure  
Sea Level Pressure 29.97 in    
Wind  
Wind Speed 11 mph (WNW)    
Max Wind Speed 23 mph    
Max Gust Speed 29 mph    
Visibility 10 miles    
Events      
T = Trace of Precipitation, MM = Missing Value Source: NWS Daily Summary

Daily Weather History Graph

Daily Weather History Graph

Search for Another Location

Airport:

Trip Planner

Search our weather history database for the weather conditions in past years. The results will help you decide how hot, cold, wet, or windy it might be!

Date:

Astronomy

Mar. 07, 2013 Rise Set
Actual Time 6:41 AM MST 6:09 PM MST
Civil Twilight 6:11 AM MST 6:39 PM MST
Nautical Twilight 5:37 AM MST 7:13 PM MST
Astronomical Twilight 5:02 AM MST 7:48 PM MST
Moon 3:54 AM MST (3/7) 1:50 PM MST (3/7)
Length of Visible Light 12h 27m
Length of Day
11h 28m
Waning Crescent, 19% of the Moon is Illuminated
Mar 7
Waning Crescent
Mar 11
New
Mar 19
First Quarter
Mar 27
Full
Apr 2
Last Quarter

Hourly Weather History & Observations

Time (MST) Temp. Windchill Dew Point Humidity Pressure Visibility Wind Dir Wind Speed Gust Speed Precip Events Conditions
12:53 AM 28.9 °F 17.7 °F 24.1 °F 82% 29.84 in 10.0 mi SW 15.0 mph - N/A   Mostly Cloudy
1:53 AM 30.9 °F 22.2 °F 23.0 °F 72% 29.84 in 10.0 mi SW 10.4 mph - N/A   Partly Cloudy
2:53 AM 30.9 °F 20.2 °F 21.9 °F 69% 29.86 in 10.0 mi WSW 15.0 mph - N/A   Partly Cloudy
3:01 AM 30.9 °F 21.2 °F 23.0 °F 72% 29.81 in 10.0 mi WNW 12.7 mph - N/A   Partly Cloudy
3:53 AM 27.0 °F 18.0 °F 21.0 °F 78% 29.91 in 10.0 mi South 9.2 mph - N/A   Partly Cloudy
4:37 AM 37.0 °F 26.4 °F 25.0 °F 62% 29.83 in 10.0 mi West 20.7 mph - N/A   Partly Cloudy
4:53 AM 37.0 °F 26.2 °F 25.0 °F 62% 29.91 in 10.0 mi West 21.9 mph - N/A   Clear
5:53 AM 34.0 °F 24.6 °F 24.1 °F 67% 29.95 in 10.0 mi West 13.8 mph - N/A   Partly Cloudy
6:53 AM 32.0 °F 27.5 °F 24.1 °F 73% 29.97 in 10.0 mi Variable 4.6 mph - N/A   Partly Cloudy
7:53 AM 33.8 °F 27.0 °F 24.8 °F 70% 29.92 in 10.0 mi WSW 8.1 mph - N/A   Clear
8:53 AM 36.0 °F 29.6 °F 26.1 °F 67% 30.02 in 10.0 mi SW 8.1 mph - N/A   Partly Cloudy
9:53 AM 41.0 °F 34.7 °F 25.0 °F 53% 30.01 in 10.0 mi SW 10.4 mph - N/A   Partly Cloudy
10:53 AM 45.0 °F 39.3 °F 24.1 °F 44% 30.01 in 10.0 mi SSW 11.5 mph - N/A   Partly Cloudy
11:53 AM 48.9 °F - 19.9 °F 32% 30.00 in 10.0 mi WSW 13.8 mph 18.4 mph N/A   Partly Cloudy
12:53 PM 48.9 °F - 17.1 °F 28% 29.99 in 10.0 mi WNW 17.3 mph - N/A   Scattered Clouds
1:53 PM 51.1 °F - 15.1 °F 24% 29.97 in 10.0 mi WNW 9.2 mph - N/A   Partly Cloudy
2:53 PM 53.1 °F - 12.0 °F 20% 29.96 in 10.0 mi NW 8.1 mph 18.4 mph N/A   Partly Cloudy
3:53 PM 51.1 °F - 14.0 °F 23% 29.99 in 10.0 mi North 11.5 mph - N/A   Partly Cloudy
4:53 PM 50.0 °F - 15.1 °F 25% 29.97 in 10.0 mi NNE 8.1 mph - N/A   Partly Cloudy
5:53 PM 46.0 °F 39.9 °F 19.0 °F 34% 30.02 in 10.0 mi ENE 13.8 mph - N/A   Scattered Clouds
6:53 PM 42.1 °F 36.1 °F 28.0 °F 58% 30.05 in 10.0 mi ENE 10.4 mph - N/A   Scattered Clouds
7:53 PM 37.0 °F 32.4 °F 27.0 °F 67% 30.07 in 10.0 mi NNE 5.8 mph - N/A   Scattered Clouds
8:53 PM 35.1 °F 27.9 °F 27.0 °F 72% 30.07 in 10.0 mi NNE 9.2 mph - N/A   Clear
9:53 PM 35.1 °F 27.9 °F 27.0 °F 72% 30.07 in 10.0 mi NNE 9.2 mph - N/A   Clear
10:53 PM 34.0 °F 26.6 °F 27.0 °F 75% 30.05 in 10.0 mi NNE 9.2 mph - N/A   Scattered Clouds
11:53 PM 34.0 °F 27.2 °F 28.0 °F 79% 30.04 in 10.0 mi NNE 8.1 mph - N/A   Overcast